FW8242 Weather Reports


time (UTC)temp
C
wind
direction
speed
KPH
gust
KPH
rain 1hr
cm
rain 24hr
cm
rain mn
cm
humidity
%
barometer
mb
20260502194538 23 239 3.2 11.3 0.00 0.10 0.00 85 859.4
20260502194037 23 224 0.0 8.0 0.00 0.10 0.00 86 859.5
20260502193538 23 255 1.6 8.0 0.00 0.10 0.00 85 859.6
20260502193035 23 298 1.6 9.7 0.00 0.10 0.00 86 859.5
20260502192534 23 255 0.0 4.8 0.00 0.10 0.00 85 859.7
20260502192030 23 255 0.0 6.4 0.00 0.10 0.00 85 859.7
20260502191529 23 215 0.0 6.4 0.00 0.10 0.00 85 859.7
20260502191033 23 215 0.0 3.2 0.00 0.10 0.00 84 859.8
20260502190526 23 215 0.0 1.6 0.00 0.10 0.00 84 859.9
20260502190030 23 215 0.0 3.2 0.00 0.10 0.00 84 860.0
20260502185522 23 215 0.0 9.7 0.00 0.10 0.00 85 860.0
20260502185021 22 215 1.6 9.7 0.00 0.10 0.00 86 860.2
20260502184522 22 198 0.0 3.2 0.00 0.10 0.00 86 860.2
20260502184021 22 200 0.0 3.2 0.00 0.10 0.00 85 860.3
20260502183517 22 200 0.0 3.2 0.00 0.10 0.00 85 860.4
20260502183016 22 203 0.0 8.0 0.00 0.10 0.00 85 860.5
20260502182517 22 208 1.6 8.0 0.00 0.10 0.00 86 860.6
20260502182013 23 146 3.2 8.0 0.00 0.10 0.00 84 860.6
20260502181511 23 166 3.2 8.0 0.00 0.10 0.00 84 860.7
20260502181013 23 222 0.0 12.9 0.00 0.10 0.00 84 860.6
20260502180508 23 196 3.2 12.9 0.00 0.10 0.00 83 860.7
20260502164044 22 203 1.6 12.9 0.00 0.10 0.00 84 861.5
20260502163543 22 206 6.4 12.9 0.00 0.10 0.00 83 861.5
20260502163042 22 178 3.2 11.3 0.00 0.10 0.00 83 861.5
20260502162540 22 150 3.2 11.3 0.00 0.10 0.00 83 861.5
20260502162039 22 156 3.2 9.7 0.00 0.10 0.00 83 861.4
20260502161537 22 199 4.8 9.7 0.00 0.10 0.00 83 861.5
20260502161036 22 194 3.2 8.0 0.00 0.10 0.00 83 861.4
20260502160534 22 198 1.6 8.0 0.00 0.10 0.00 82 861.4
20260502152027 21 192 1.6 6.4 0.00 0.10 0.00 84 861.6
20260502151520 21 192 1.6 4.8 0.00 0.10 0.00 85 861.5
20260502151018 21 192 1.6 6.4 0.00 0.10 0.00 85 861.4
20260502150516 20 188 1.6 4.8 0.00 0.10 0.00 86 861.5
20260502130542 15 67 6.4 9.7 0.00 0.10 0.00 89 860.7
20260502123533 -17 0.0 0.0 0.00 0.10 0.00 860.4
20260502123032 -17 0.0 0.0 0.00 0.10 0.00 860.3
20260502122530 -17 0.0 0.0 0.00 0.10 0.00 860.3
20260502122028 -17 0.0 0.0 0.00 0.10 0.00 860.3
20260502121528 -17 0.0 0.0 0.00 0.10 0.00 860.2
20260502121027 -17 0.0 0.0 0.00 0.10 0.00 860.2
20260502120524 -17 0.0 0.0 0.00 0.10 0.00 860.2
20260502115525 -17 0.0 0.0 0.00 0.10 0.00 860.2
20260502115019 -17 0.0 0.0 0.00 0.10 0.00 860.2
20260502114519 -17 0.0 0.0 0.00 0.10 0.00 860.1
20260502114017 -17 0.0 0.0 0.00 0.10 0.00 860.1
20260502113516 -17 0.0 0.0 0.00 0.10 0.00 860.0
20260502113017 -17 0.0 0.0 0.00 0.10 0.00 860.0
20260502112512 -17 0.0 0.0 0.00 0.10 0.00 859.9
20260502112011 -17 0.0 0.0 0.00 0.10 0.00 859.9
20260502111510 -17 0.0 0.0 0.00 0.10 0.00 859.9
20260502111009 -17 0.0 0.0 0.00 0.10 0.00 859.8
20260502110508 -17 0.0 0.0 0.00 0.10 0.00 859.8
20260502110005 -17 0.0 0.0 0.00 0.10 0.00 859.7
20260502105504 -17 0.0 0.0 0.00 0.10 0.00 859.7
20260502105003 -17 0.0 0.0 0.00 0.10 0.00 859.6
20260502104503 -17 0.0 0.0 0.00 0.10 0.00 859.6
20260502104059 -17 0.0 0.0 0.00 0.10 0.00 859.6
20260502103558 -17 0.0 0.0 0.00 0.10 0.00 859.6
20260502103105 -17 0.0 0.0 0.00 0.10 0.00 859.6
20260502102556 -17 0.0 0.0 0.00 0.10 0.00 859.6
20260502102053 -17 0.0 0.0 0.00 0.10 0.00 859.6
20260502101616 -17 0.0 0.0 0.00 0.10 0.00 859.6
20260502101051 -17 0.0 0.0 0.00 0.10 0.00 859.6
20260502100549 -17 0.0 0.0 0.00 0.10 0.00 859.6
20260502091034 -17 0.0 0.0 0.00 0.10 0.00 859.6
20260502090532 -17 0.0 0.0 0.00 0.10 0.00 859.6
20260502071517 16 69 4.8 6.4 0.00 0.10 0.00 93 860.3
20260502071017 16 49 3.2 6.4 0.00 0.10 0.00 93 860.4
20260502070515 16 69 3.2 6.4 0.00 0.10 0.00 93 860.5
20260502070021 16 71 3.2 6.4 0.00 0.10 0.00 93 860.5
20260502065514 16 71 1.6 6.4 0.00 0.10 0.00 93 860.5
20260502065017 16 71 3.2 6.4 0.00 0.10 0.00 93 860.5
20260502064526 16 71 3.2 6.4 0.00 0.10 0.00 93 860.5
20260502064012 16 76 3.2 8.0 0.00 0.10 0.00 93 860.7
20260502063515 16 74 3.2 8.0 0.00 0.10 0.00 93 860.7
20260502063012 16 68 3.2 8.0 0.00 0.10 0.00 93 860.8
20260502062512 16 71 1.6 6.4 0.00 0.10 0.00 93 860.8
20260502062010 16 63 3.2 6.4 0.00 0.10 0.00 93 860.8
20260502061509 16 72 3.2 6.4 0.00 0.10 0.00 93 860.8
20260502061008 16 65 3.2 8.0 0.00 0.10 0.00 93 860.9
20260502060507 16 79 3.2 8.0 0.00 0.10 0.00 93 860.9
20260502060009 16 71 3.2 6.4 0.00 0.10 0.00 93 860.9
20260502055506 16 85 1.6 8.0 0.00 0.10 0.10 93 860.9
20260502055007 16 80 3.2 8.0 0.00 0.10 0.10 93 861.0
20260502054505 16 58 3.2 8.0 0.00 0.10 0.10 93 860.9
20260502054009 16 66 4.8 8.0 0.00 0.10 0.10 93 861.0
20260502053505 16 66 4.8 8.0 0.00 0.10 0.10 93 861.1
20260502053005 16 69 3.2 6.4 0.00 0.10 0.10 93 861.0
20260502052505 16 78 3.2 6.4 0.00 0.10 0.10 93 861.1
20260502052005 16 74 3.2 6.4 0.00 0.10 0.10 93 861.1
20260502051506 16 67 3.2 6.4 0.00 0.10 0.10 93 861.1
20260502051005 16 89 3.2 6.4 0.00 0.10 0.10 93 861.2
20260502050504 16 76 3.2 6.4 0.00 0.10 0.10 93 861.2
20260502050004 16 80 1.6 6.4 0.00 0.10 0.10 93 861.2
20260502045504 16 65 3.2 8.0 0.00 0.10 0.10 93 861.3
20260502045004 17 65 3.2 8.0 0.00 0.10 0.10 93 861.3
20260502044504 17 70 3.2 8.0 0.00 0.10 0.10 93 861.4
20260502044005 17 75 1.6 8.0 0.00 0.10 0.10 93 861.5
20260502043503 17 68 4.8 8.0 0.00 0.10 0.10 93 861.5
20260502043008 17 67 1.6 8.0 0.00 0.10 0.10 93 861.5
20260502042504 17 65 1.6 8.0 0.00 0.10 0.10 93 861.5
20260502042004 17 55 1.6 6.4 0.00 0.10 0.10 94 861.6
20260502041503 17 60 1.6 4.8 0.00 0.10 0.10 94 861.5
20260502041005 17 76 1.6 3.2 0.00 0.10 0.10 94 861.6
20260502040504 17 76 1.6 3.2 0.00 0.10 0.10 94 861.6
20260502040010 17 76 0.0 4.8 0.00 0.10 0.10 94 861.6
20260502035502 17 76 0.0 4.8 0.00 0.10 0.10 94 861.6
20260502035002 17 76 3.2 4.8 0.00 0.10 0.10 94 861.5
20260502034502 17 77 1.6 6.4 0.00 0.10 0.10 94 861.6
20260502034001 17 66 3.2 6.4 0.00 0.10 0.10 95 861.4
20260502033600 17 69 3.2 6.4 0.00 0.10 0.10 95 861.4
20260502033100 17 76 1.6 6.4 0.00 0.10 0.10 95 861.3
20260502032559 17 74 3.2 6.4 0.00 0.10 0.10 95 861.2
20260502032101 17 57 3.2 6.4 0.00 0.10 0.10 94 861.2
20260502031558 17 67 0.0 4.8 0.00 0.10 0.10 95 861.1
20260502031057 17 65 0.0 4.8 0.00 0.10 0.10 95 861.0
20260502030556 18 74 0.0 4.8 0.00 0.10 0.10 95 860.9
20260502030055 18 72 1.6 4.8 0.00 0.10 0.10 95 860.9
20260502025555 18 71 0.0 3.2 0.00 0.10 0.10 95 860.8
20260502025054 18 71 0.0 3.2 0.00 0.10 0.10 95 860.8
20260502024554 18 69 0.0 3.2 0.00 0.10 0.10 95 860.6
20260502024054 18 69 0.0 3.2 0.00 0.10 0.10 95 860.5
20260502023553 18 69 0.0 3.2 0.00 0.10 0.10 95 860.5
20260502023057 18 69 0.0 3.2 0.00 0.10 0.10 95 860.4
20260502022553 18 69 0.0 3.2 0.00 0.10 0.10 95 860.2
20260502022052 18 69 0.0 3.2 0.00 0.10 0.10 95 860.2
20260502021553 18 69 0.0 1.6 0.00 0.10 0.10 95 860.1
20260502021057 18 69 0.0 1.6 0.00 0.10 0.10 95 860.0
20260502020553 18 69 0.0 1.6 0.00 0.10 0.10 95 859.9
20260502020052 19 69 0.0 0.0 0.00 0.10 0.10 95 859.8
20260502015552 19 69 0.0 0.0 0.00 0.23 0.10 95 859.7
20260502015052 19 69 0.0 1.6 0.00 0.23 0.10 95 859.8
20260502014557 19 69 0.0 4.8 0.00 0.23 0.10 95 859.6
20260502014051 19 69 1.6 4.8 0.00 0.23 0.10 95 859.5
20260502013555 19 212 0.0 0.0 0.00 0.23 0.10 95 859.4
20260502013057 19 212 0.0 1.6 0.00 0.23 0.10 95 859.3
20260502012551 19 212 0.0 3.2 0.00 0.23 0.10 95 859.2
20260502012051 19 212 0.0 3.2 0.00 0.23 0.10 95 859.1
20260502011608 19 212 0.0 0.0 0.00 0.23 0.10 95 859.0
20260502011051 19 212 0.0 0.0 0.00 0.23 0.10 95 858.9
20260502010552 19 212 0.0 0.0 0.00 0.23 0.10 95 858.9
20260502010050 19 212 0.0 0.0 0.00 0.23 0.10 95 858.8
20260502005550 19 212 0.0 1.6 0.00 0.48 0.10 95 858.7
20260502005052 19 212 0.0 1.6 0.00 0.48 0.10 94 858.6
20260502004600 19 212 0.0 0.0 0.00 0.48 0.10 94 858.6
20260502004049 20 212 0.0 0.0 0.00 0.48 0.10 94 858.5
20260502003549 20 212 0.0 1.6 0.00 0.48 0.10 95 858.4
20260502003050 20 212 0.0 4.8 0.00 0.48 0.10 95 858.4
20260502002549 20 212 0.0 4.8 0.00 0.48 0.10 95 858.4
20260502002051 20 212 0.0 1.6 0.00 0.48 0.10 94 858.2
20260502001549 20 212 0.0 6.4 0.00 0.48 0.10 94 858.0
20260502001049 20 211 1.6 8.0 0.00 0.48 0.10 94 858.1
20260502000551 20 221 1.6 9.7 0.00 0.48 0.10 94 858.1
20260502000106 20 192 3.2 8.0 0.00 0.48 0.10 94 858.0
20260501235550 20 169 3.2 8.0 0.00 0.76 0.10 94 857.8
20260501235051 20 142 1.6 4.8 0.00 0.76 0.10 94 857.8
20260501234548 20 142 0.0 8.0 0.00 0.76 0.10 94 857.7
20260501234048 20 142 1.6 8.0 0.00 0.76 0.10 94 857.6
20260501233548 20 175 3.2 8.0 0.00 0.76 0.10 93 857.5
20260501233048 21 176 0.0 4.8 0.00 0.76 0.10 93 857.5
20260501232548 21 176 0.0 3.2 0.03 0.76 0.10 93 857.4
20260501232050 21 176 0.0 8.0 0.03 0.76 0.10 93 857.5
20260501231552 21 176 1.6 11.3 0.05 0.76 0.10 93 857.3
20260501231048 21 176 1.6 8.0 0.10 0.76 0.10 93 857.2
20260501230549 21 181 0.0 4.8 0.10 0.76 0.10 93 857.2
20260501230050 21 181 0.0 14.5 0.10 0.76 0.10 93 857.1
20260501225547 21 207 1.6 14.5 0.10 0.76 0.10 93 857.2
20260501225046 21 198 0.0 6.4 0.10 0.76 0.10 93 856.9
20260501224557 21 198 3.2 6.4 0.10 0.76 0.10 93 857.1
20260501224046 21 190 0.0 3.2 0.10 0.76 0.10 93 857.0
20260501223549 21 103 0.0 3.2 0.10 0.76 0.10 92 856.8
20260501223045 22 65 0.0 1.6 0.10 0.76 0.10 92 857.0
20260501222545 22 65 0.0 1.6 0.08 0.71 0.08 92 857.2
20260501222047 22 65 0.0 1.6 0.08 0.71 0.08 92 857.1
20260501221602 22 65 0.0 1.6 0.05 0.71 0.05 91 857.1
20260501221048 22 65 0.0 4.8 0.00 0.66 0.00 90 857.2
20260501220543 22 65 1.6 4.8 0.00 0.66 0.00 90 857.2
20260501220048 22 275 0.0 3.2 0.00 0.66 0.00 89 857.3
20260501215544 22 254 0.0 0.0 0.00 0.66 0.00 90 857.2
20260501215043 22 254 0.0 0.0 0.00 0.66 0.00 89 857.2
20260501214542 22 254 0.0 1.6 0.00 0.66 0.00 89 857.2
20260501214041 22 254 0.0 1.6 0.00 0.66 0.00 88 857.2
20260501213541 22 254 0.0 3.2 0.00 0.66 0.00 88 857.3
20260501213042 22 212 0.0 1.6 0.00 0.66 0.00 88 857.4
20260501212540 22 213 0.0 3.2 0.00 0.66 0.00 89 857.4
20260501212040 22 213 0.0 8.0 0.00 0.66 0.00 88 857.5
20260501211540 22 211 0.0 8.0 0.00 0.66 0.00 87 857.4
20260501211039 22 233 0.0 3.2 0.00 0.66 0.00 87 857.5
20260501210539 22 234 0.0 3.2 0.00 0.66 0.00 87 857.5
20260501210040 22 207 0.0 4.8 0.00 0.66 0.00 87 857.4
20260501205539 22 208 0.0 3.2 0.00 0.66 0.00 86 857.5
20260501205038 22 208 0.0 4.8 0.00 0.66 0.00 86 857.5
20260501204539 22 208 0.0 8.0 0.00 0.66 0.00 86 857.5
20260501204039 23 209 0.0 8.0 0.00 0.66 0.00 86 857.6
20260501203539 23 190 3.2 9.7 0.00 0.66 0.00 85 857.6
20260501203036 22 230 1.6 9.7 0.00 0.66 0.00 85 857.7
20260501202534 22 216 0.0 6.4 0.00 0.66 0.00 86 857.7
20260501202033 22 161 0.0 11.3 0.00 0.66 0.00 86 857.8
20260501201532 22 162 3.2 11.3 0.00 0.66 0.00 86 857.9
20260501201033 22 180 1.6 11.3 0.00 0.66 0.00 86 858.0
20260501200531 22 207 1.6 6.4 0.00 0.66 0.00 86 858.1
20260501200030 22 190 0.0 6.4 0.00 0.66 0.00 87 858.2
20260501195531 22 190 1.6 6.4 0.00 0.66 0.00 86 858.1
20260501195030 22 175 1.6 8.0 0.00 0.66 0.00 85 858.2